Weather History for KAIA - October, 2012

Change the Weather History Date:

Monday, October 8, 2012

  Actual Average Record
Temperature  
Mean Temperature 45 °F 49 °F  
Max Temperature 66 °F 65 °F 86 °F (1954)
Min Temperature 23 °F 32 °F 17 °F (1917)
Degree Days  
Heating Degree Days 20 16  
Month to date heating degree days 166 117  
Since 1 July heating degree days 329 362  
Cooling Degree Days 0 0  
Month to date cooling degree days 0 0  
Year to date cooling degree days 959 563  
Moisture  
Dew Point 26 °F    
Average Humidity 53    
Maximum Humidity 88    
Minimum Humidity 18    
Precipitation  
Precipitation 0.00 in 0.05 in 2.09 in (2011)
Month to date precipitation 0.41 0.37  
Year to date precipitation 6.22 14.17  
Sea Level Pressure  
Sea Level Pressure 29.89 in    
Wind  
Wind Speed 8 mph (NW)    
Max Wind Speed 17 mph    
Max Gust Speed 20 mph    
Visibility 10 miles    
Events      
T = Trace of Precipitation, MM = Missing Value Source: NWS Daily Summary

Daily Weather History Graph

Daily Weather History Graph

Search for Another Location

Airport or City:

Trip Planner

Search our weather history database for the weather conditions in past years. The results will help you decide how hot, cold, wet, or windy it might be!

Date:

Astronomy

Oct. 08, 2012 Rise Set
Actual Time 6:56 AM MDT 6:20 PM MDT
Civil Twilight 6:28 AM MDT 6:47 PM MDT
Nautical Twilight 5:56 AM MDT 7:20 PM MDT
Astronomical Twilight 5:23 AM MDT 7:52 PM MDT
Moon No Moon Rise 2:17 PM MDT (10/8)
Length of Visible Light 12h 19m
Length of Day
11h 23m
Last Quarter, 46% of the Moon is Illuminated
Oct 8
Last Quarter
Oct 15
New
Oct 21
First Quarter
Oct 29
Full
Nov 6
Last Quarter

Hourly Weather History & Observations

Time (MDT) Temp. Windchill Dew Point Humidity Pressure Visibility Wind Dir Wind Speed Gust Speed Precip Events Conditions
12:53 AM 35.1 °F 30.1 °F 25.0 °F 67% 29.96 in 10.0 mi West 5.8 mph - N/A   Clear
1:53 AM 32.0 °F 28.7 °F 24.1 °F 73% 29.95 in 10.0 mi West 3.5 mph - N/A   Clear
2:53 AM 28.9 °F 21.1 °F 23.0 °F 78% 29.93 in 10.0 mi WSW 8.1 mph - N/A   Clear
3:53 AM 25.0 °F 16.3 °F 21.9 °F 88% 29.93 in 10.0 mi WSW 8.1 mph - N/A   Clear
4:53 AM 25.0 °F 17.1 °F 21.0 °F 85% 29.92 in 10.0 mi West 6.9 mph - N/A   Clear
5:53 AM 27.0 °F 18.7 °F 21.9 °F 81% 29.92 in 10.0 mi West 8.1 mph - N/A   Clear
6:53 AM 27.0 °F 18.0 °F 23.0 °F 85% 29.97 in 10.0 mi West 9.2 mph - N/A   Clear
7:53 AM 33.1 °F 26.1 °F 28.0 °F 82% 29.99 in 10.0 mi West 8.1 mph - N/A   Clear
8:53 AM 44.1 °F 39.5 °F 28.0 °F 53% 29.96 in 10.0 mi West 8.1 mph - N/A   Clear
9:53 AM 52.0 °F - 25.0 °F 35% 29.92 in 10.0 mi West 16.1 mph - N/A   Clear
10:53 AM 55.0 °F - 21.9 °F 28% 29.91 in 10.0 mi West 11.5 mph - N/A   Clear
11:53 AM 59.0 °F - 21.9 °F 24% 29.88 in 10.0 mi WNW 10.4 mph - N/A   Clear
12:53 PM 62.1 °F - 21.0 °F 21% 29.85 in 10.0 mi NW 10.4 mph - N/A   Clear
1:53 PM 64.0 °F - 19.0 °F 18% 29.83 in 10.0 mi NW 6.9 mph - N/A   Clear
2:53 PM 63.0 °F - 21.0 °F 20% 29.83 in 10.0 mi NW 8.1 mph - N/A   Clear
3:53 PM 64.9 °F - 21.9 °F 19% 29.81 in 10.0 mi NNW 4.6 mph - N/A   Clear
4:53 PM 64.9 °F - 21.0 °F 19% 29.81 in 10.0 mi NNW 5.8 mph - N/A   Clear
5:53 PM 59.0 °F - 27.0 °F 29% 29.82 in 10.0 mi NE 5.8 mph - N/A   Clear
6:53 PM 52.0 °F - 32.0 °F 47% 29.85 in 10.0 mi NNE 9.2 mph - N/A   Clear
7:53 PM 50.0 °F - 33.1 °F 52% 29.85 in 10.0 mi ENE 3.5 mph - N/A   Clear
8:53 PM 46.9 °F - 34.0 °F 61% 29.84 in 10.0 mi Calm Calm - N/A   Clear
9:53 PM 48.9 °F - 35.1 °F 59% 29.84 in 10.0 mi NNE 9.2 mph - N/A   Clear
10:53 PM 46.9 °F - 37.9 °F 71% 29.85 in 10.0 mi NNE 12.7 mph - N/A   Scattered Clouds
11:53 PM 45.0 °F 40.1 °F 37.9 °F 76% 29.86 in 10.0 mi NE 9.2 mph - N/A   Clear